• In Österreich
  • Länderverzeichnis
  • Für 7 Tage
  • Wassertemperatur
  • Satellitenkarten
  • Wetterkarte
  • News
  • Widgets
  • user-avatar
    Anmelden

    Stündliche Wetter Kozak

    Heute, 18 Juli, Mittwoch

    Zeit Temperatur Niederschläge Wind Luftdruck Luftfeuchtigkeit
    00:00 +19°C° 0 mm 1 m/S 732 mmHg 93%
    01:00 +19°C° 0 mm 1 m/S 732 mmHg 94%
    02:00 +19°C° 0 mm 1 m/S 731 mmHg 95%
    03:00 +18°C° 0 mm 1 m/S 731 mmHg 95%
    04:00 +18°C° 0 mm 1 m/S 731 mmHg 96%
    05:00 +18°C° 0 mm 1 m/S 731 mmHg 96%
    06:00 +20°C° 0 mm 1 m/S 731 mmHg 92%
    07:00 +21°C° 0 mm 1 m/S 732 mmHg 89%
    08:00 +22°C° 0 mm 1 m/S 732 mmHg 85%
    09:00 +23°C° 0,3 mm 1 m/S 732 mmHg 82%
    10:00 +24°C° 0,3 mm 1 m/S 732 mmHg 80%
    11:00 +24°C° 0,3 mm 1 m/S 732 mmHg 77%
    12:00 +25°C° 0,4 mm 2 m/S 731 mmHg 75%
    13:00 +26°C° 0,4 mm 2 m/S 731 mmHg 73%
    14:00 +26°C° 0,4 mm 2 m/S 731 mmHg 71%
    15:00 +27°C° 0,3 mm 2 m/S 732 mmHg 72%
    16:00 +27°C° 0,3 mm 2 m/S 732 mmHg 72%
    17:00 +27°C° 0,3 mm 2 m/S 732 mmHg 72%
    18:00 +26°C° 0,4 mm 2 m/S 732 mmHg 77%
    19:00 +25°C° 0,4 mm 2 m/S 732 mmHg 82%
    20:00 +24°C° 0,4 mm 1 m/S 732 mmHg 87%
    21:00 +23°C° 1,2 mm 2 m/S 732 mmHg 90%
    22:00 +21°C° 1,2 mm 2 m/S 732 mmHg 92%
    23:00 +20°C° 1,2 mm 2 m/S 732 mmHg 95%

    Morgen, 19 Juli, Donnerstag

    Zeit Temperatur Niederschläge Wind Luftdruck Luftfeuchtigkeit
    00:00 +20°C° 0,1 mm 2 m/S 732 mmHg 96%
    01:00 +19°C° 0,1 mm 2 m/S 732 mmHg 96%
    02:00 +19°C° 0,1 mm 2 m/S 732 mmHg 97%
    03:00 +19°C° 0 mm 2 m/S 732 mmHg 97%
    04:00 +19°C° 0 mm 2 m/S 732 mmHg 98%
    05:00 +19°C° 0 mm 2 m/S 733 mmHg 98%
    06:00 +19°C° 0 mm 2 m/S 733 mmHg 96%
    07:00 +20°C° 0 mm 3 m/S 733 mmHg 94%
    08:00 +21°C° 0 mm 3 m/S 733 mmHg 91%
    09:00 +22°C° 0,1 mm 3 m/S 733 mmHg 86%
    10:00 +24°C° 0,1 mm 3 m/S 733 mmHg 81%
    11:00 +25°C° 0,1 mm 3 m/S 734 mmHg 77%
    12:00 +26°C° 0 mm 3 m/S 734 mmHg 73%
    13:00 +27°C° 0 mm 3 m/S 733 mmHg 68%
    14:00 +28°C° 0 mm 4 m/S 733 mmHg 64%
    15:00 +28°C° 0,4 mm 4 m/S 733 mmHg 66%
    16:00 +28°C° 0,4 mm 4 m/S 733 mmHg 68%
    17:00 +27°C° 0,4 mm 4 m/S 733 mmHg 70%
    18:00 +26°C° 0,2 mm 3 m/S 733 mmHg 75%
    19:00 +24°C° 0,2 mm 3 m/S 733 mmHg 81%
    20:00 +22°C° 0,2 mm 3 m/S 733 mmHg 87%
    21:00 +21°C° 0 mm 3 m/S 734 mmHg 90%
    22:00 +20°C° 0 mm 3 m/S 734 mmHg 92%
    23:00 +19°C° 0 mm 2 m/S 734 mmHg 95%

    übermorgen, 20 Juli, Freitag

    Zeit Temperatur Niederschläge Wind Luftdruck Luftfeuchtigkeit
    00:00 +19°C° 0 mm 2 m/S 734 mmHg 96%
    01:00 +19°C° 0 mm 2 m/S 734 mmHg 97%
    02:00 +18°C° 0 mm 2 m/S 734 mmHg 97%
    03:00 +18°C° 0 mm 3 m/S 734 mmHg 98%
    04:00 +18°C° 0 mm 3 m/S 734 mmHg 98%
    05:00 +18°C° 0 mm 3 m/S 734 mmHg 98%
    06:00 +19°C° 0 mm 3 m/S 734 mmHg 96%
    07:00 +19°C° 0 mm 4 m/S 734 mmHg 95%
    08:00 +20°C° 0 mm 4 m/S 735 mmHg 93%
    09:00 +21°C° 0,1 mm 4 m/S 735 mmHg 89%
    10:00 +22°C° 0,1 mm 4 m/S 735 mmHg 85%
    11:00 +23°C° 0,1 mm 4 m/S 735 mmHg 80%
    12:00 +25°C° 0,3 mm 4 m/S 735 mmHg 77%
    13:00 +26°C° 0,3 mm 5 m/S 735 mmHg 73%
    14:00 +27°C° 0,3 mm 5 m/S 735 mmHg 70%
    15:00 +27°C° 0,3 mm 5 m/S 735 mmHg 70%
    16:00 +27°C° 0,3 mm 5 m/S 735 mmHg 71%
    17:00 +27°C° 0,3 mm 5 m/S 734 mmHg 71%
    18:00 +25°C° 0,1 mm 4 m/S 734 mmHg 76%
    19:00 +24°C° 0,1 mm 3 m/S 735 mmHg 81%
    20:00 +22°C° 0,1 mm 3 m/S 735 mmHg 87%
    21:00 +21°C° 0 mm 3 m/S 735 mmHg 89%
    22:00 +20°C° 0 mm 3 m/S 735 mmHg 92%
    23:00 +20°C° 0 mm 3 m/S 735 mmHg 95%

    21 Juli, Samstag

    Zeit Temperatur Niederschläge Wind Luftdruck Luftfeuchtigkeit
    00:00 +20°C° 0 mm 3 m/S 735 mmHg 96%
    01:00 +19°C° 0 mm 3 m/S 735 mmHg 96%
    02:00 +19°C° 0 mm 3 m/S 735 mmHg 97%
    03:00 +19°C° 0 mm 4 m/S 735 mmHg 97%
    04:00 +19°C° 0 mm 4 m/S 735 mmHg 96%
    05:00 +19°C° 0 mm 4 m/S 735 mmHg 96%
    06:00 +19°C° 0 mm 4 m/S 735 mmHg 94%
    07:00 +20°C° 0 mm 4 m/S 735 mmHg 93%
    08:00 +20°C° 0 mm 4 m/S 735 mmHg 91%
    09:00 +21°C° 0,1 mm 4 m/S 736 mmHg 88%
    10:00 +22°C° 0,1 mm 4 m/S 736 mmHg 85%
    11:00 +22°C° 0,1 mm 4 m/S 736 mmHg 82%
    12:00 +25°C° 0,8 mm 4 m/S 736 mmHg 78%
    13:00 +26°C° 0,8 mm 4 m/S 736 mmHg 74%
    14:00 +27°C° 0,8 mm 5 m/S 736 mmHg 69%
    15:00 +27°C° 0,4 mm 4 m/S 736 mmHg 70%
    16:00 +27°C° 0,4 mm 4 m/S 736 mmHg 70%
    17:00 +27°C° 0,4 mm 4 m/S 736 mmHg 71%
    18:00 +25°C° 0,4 mm 4 m/S 736 mmHg 76%
    19:00 +24°C° 0,4 mm 3 m/S 736 mmHg 81%
    20:00 +22°C° 0,4 mm 3 m/S 736 mmHg 86%
    21:00 +21°C° 0,1 mm 3 m/S 736 mmHg 89%
    22:00 +20°C° 0,1 mm 3 m/S 736 mmHg 91%
    23:00 +19°C° 0,1 mm 3 m/S 736 mmHg 94%

    22 Juli, Sonntag

    Zeit Temperatur Niederschläge Wind Luftdruck Luftfeuchtigkeit
    00:00 +19°C° 0 mm 3 m/S 736 mmHg 94%
    01:00 +19°C° 0 mm 3 m/S 736 mmHg 95%
    02:00 +18°C° 0 mm 3 m/S 736 mmHg 96%
    03:00 +18°C° 0 mm 3 m/S 736 mmHg 96%
    04:00 +18°C° 0 mm 3 m/S 736 mmHg 96%
    05:00 +18°C° 0 mm 3 m/S 736 mmHg 97%
    06:00 +19°C° 0 mm 3 m/S 736 mmHg 93%
    07:00 +20°C° 0 mm 3 m/S 736 mmHg 90%
    08:00 +22°C° 0 mm 3 m/S 736 mmHg 86%
    09:00 +23°C° 0,1 mm 4 m/S 736 mmHg 78%
    10:00 +26°C° 0,1 mm 4 m/S 736 mmHg 71%
    11:00 +27°C° 0,1 mm 4 m/S 736 mmHg 63%
    12:00 +28°C° 0 mm 4 m/S 736 mmHg 60%
    13:00 +28°C° 0 mm 4 m/S 736 mmHg 56%
    14:00 +29°C° 0 mm 4 m/S 735 mmHg 53%
    15:00 +29°C° 0 mm 4 m/S 735 mmHg 54%
    16:00 +29°C° 0 mm 4 m/S 735 mmHg 56%
    17:00 +28°C° 0 mm 3 m/S 735 mmHg 57%
    18:00 +27°C° 0 mm 3 m/S 735 mmHg 63%
    19:00 +25°C° 0 mm 3 m/S 735 mmHg 69%
    20:00 +23°C° 0 mm 2 m/S 735 mmHg 75%
    21:00 +21°C° 0 mm 2 m/S 735 mmHg 77%
    22:00 +20°C° 0 mm 2 m/S 735 mmHg 79%
    23:00 +20°C° 0 mm 2 m/S 736 mmHg 81%

    23 Juli, Montag

    Zeit Temperatur Niederschläge Wind Luftdruck Luftfeuchtigkeit
    00:00 +19°C° 0 mm 2 m/S 735 mmHg 84%
    01:00 +19°C° 0 mm 2 m/S 735 mmHg 86%
    02:00 +18°C° 0 mm 2 m/S 735 mmHg 89%
    03:00 +18°C° 0 mm 2 m/S 735 mmHg 91%
    04:00 +18°C° 0 mm 2 m/S 735 mmHg 93%
    05:00 +18°C° 0 mm 2 m/S 736 mmHg 95%
    06:00 +19°C° 0,1 mm 3 m/S 736 mmHg 91%
    07:00 +21°C° 0,1 mm 3 m/S 736 mmHg 87%
    08:00 +22°C° 0,1 mm 3 m/S 736 mmHg 83%
    09:00 +23°C° 0,2 mm 4 m/S 736 mmHg 78%
    10:00 +26°C° 0,2 mm 4 m/S 736 mmHg 73%
    11:00 +27°C° 0,2 mm 4 m/S 736 mmHg 67%
    12:00 +28°C° 0,3 mm 5 m/S 736 mmHg 66%
    13:00 +28°C° 0,3 mm 5 m/S 735 mmHg 64%
    14:00 +29°C° 0,3 mm 5 m/S 735 mmHg 62%
    15:00 +28°C° 0,5 mm 5 m/S 735 mmHg 64%
    16:00 +28°C° 0,5 mm 5 m/S 735 mmHg 66%
    17:00 +27°C° 0,5 mm 4 m/S 735 mmHg 68%
    18:00 +26°C° 0,3 mm 4 m/S 735 mmHg 73%
    19:00 +25°C° 0,3 mm 3 m/S 735 mmHg 77%
    20:00 +22°C° 0,3 mm 3 m/S 736 mmHg 82%
    21:00 +22°C° 0 mm 3 m/S 736 mmHg 85%
    22:00 +21°C° 0 mm 3 m/S 736 mmHg 87%
    23:00 +20°C° 0 mm 3 m/S 736 mmHg 90%
    Mehr zeigen